Theta_e
313 310 312 313 314 315 316 318 323 327 327 328 328 327 328 326 327 329 330 328 326 325 326 327 328 328 328 326 329 338 339 346 350 351 350 348 344 340 343 345 347 350 352 349
312 312 314 316 316 316 315 320 325 325 326 328 329 328 325 325 323 328 327 326 326 324 326 326 329 329 329 331 328 326 328 328 343 353 347 348 348 343 343 342 347 347 347 351
313 314 316 316 316 316 315 321 323 325 326 324 323 323 320 319 321 322 325 327 325 324 325 327 330 328 331 333 333 331 330 329 329 330 346 349 348 349 349 348 350 348 349 348
314 315 315 315 315 315 315 317 322 322 322 323 321 317 319 319 318 319 320 327 325 325 326 328 329 328 334 335 334 333 331 330 336 330 333 346 346 346 341 342 346 348 348 347
314 314 314 315 316 316 316 318 320 320 320 320 319 316 316 319 319 318 321 325 325 324 327 330 332 334 339 339 338 338 337 340 341 342 343 342 343 347 349 350 348 345 346 346
313 315 314 315 316 317 318 318 320 319 318 319 317 318 316 320 320 320 320 326 326 326 330 331 332 335 338 339 337 338 340 340 341 344 347 346 345 345 347 347 347 347 347 347
314 315 315 316 314 315 316 320 324 321 317 320 319 319 319 321 320 320 319 326 328 329 330 331 332 333 334 333 333 330 331 335 340 342 342 341 341 342 344 346 343 343 342 341
314 314 315 317 315 314 313 321 324 324 319 318 319 320 320 319 321 321 322 325 326 327 327 330 330 328 328 328 328 328 327 327 327 327 331 337 334 333 334 333 334 331 331 329
315 316 317 317 318 316 316 317 320 323 322 321 324 325 325 321 321 320 324 325 325 324 324 326 325 325 326 326 327 325 325 323 322 321 320 320 323 326 326 323 325 328 325 324
319 319 322 319 318 318 319 318 318 318 322 329 330 330 326 323 324 324 324 324 325 324 325 325 325 326 326 326 325 325 324 324 323 322 321 320 319 319 319 319 320 320 320 320
318 322 321 321 317 317 318 320 322 319 320 331 333 331 327 327 325 324 324 326 326 326 325 325 327 327 326 326 325 323 321 321 320 320 318 318 318 317 317 316 316 316 316 317
320 324 324 322 321 321 318 319 321 325 326 329 330 329 328 328 326 325 325 325 324 324 324 323 324 323 324 322 320 319 319 319 319 318 318 317 317 316 316 316 316 315 315 314
321 323 328 325 322 322 324 321 321 322 326 330 330 331 326 327 326 326 324 324 324 324 323 321 321 321 321 321 320 319 319 318 318 318 317 317 316 316 315 315 314 314 313 312
326 324 325 326 326 326 326 323 324 325 323 326 327 331 329 328 328 326 325 324 325 323 322 321 321 320 320 319 319 318 318 318 318 318 317 316 316 315 315 314 313 312 312 312
322 326 327 328 327 326 326 325 324 325 324 326 327 329 327 324 324 326 324 324 320 319 319 320 319 319 319 319 319 319 318 318 317 317 316 315 315 314 313 312 312 311 310 310
324 326 327 328 325 325 325 325 324 323 323 324 323 325 324 325 324 318 318 319 319 319 319 319 319 319 318 318 318 318 317 317 316 316 315 314 313 313 312 311 310 309 309 309
324 325 325 327 325 323 323 322 323 322 322 321 322 322 321 318 318 319 319 319 319 318 318 317 317 317 317 316 316 316 315 315 314 314 313 313 312 312 310 309 309 308 308 307
322 323 323 326 323 325 320 316 319 320 320 319 318 318 319 319 319 319 319 318 318 318 317 317 317 316 316 315 315 315 314 313 313 313 312 312 310 309 309 308 308 307 307 307
321 323 323 323 324 320 318 322 320 321 322 320 319 319 318 319 318 317 317 317 316 316 316 316 315 315 314 314 314 313 312 312 312 311 309 309 308 308 308 307 307 306 305 303
322 321 322 323 324 323 322 319 318 321 322 319 317 316 315 316 317 315 316 316 315 315 314 314 312 312 313 313 312 311 310 309 309 308 308 307 307 306 306 306 305 303 301 301
324 322 321 322 324 324 322 318 316 321 321 316 316 316 315 315 316 314 314 314 313 314 313 312 311 310 308 308 308 308 307 307 306 306 306 306 305 305 304 302 301 300 302 302
321 321 318 319 321 326 321 322 323 320 316 316 315 314 313 313 313 312 312 311 310 308 307 307 307 306 306 306 306 305 305 304 304 304 304 303 303 301 300 300 301 300 301 301
319 320 319 320 321 320 319 319 316 316 315 314 314 313 312 312 311 309 307 306 305 305 305 305 305 305 305 304 303 303 302 302 302 302 301 300 299 299 299 300 301 300 299 299
321 322 321 320 319 317 316 315 314 314 313 312 312 310 309 308 306 305 305 305 305 305 304 304 304 304 303 302 301 300 298 297 297 297 297 297 297 298 298 298 298 299 300 300
320 319 319 319 317 315 315 314 313 312 311 310 308 306 305 305 305 304 304 304 304 303 303 301 300 299 297 296 294 293 292 292 292 293 294 295 296 297 298 299 299 300 302 298
318 319 319 318 317 315 314 313 312 310 308 306 305 304 305 304 304 304 303 302 301 299 297 296 295 294 293 292 291 290 290 290 291 292 294 294 295 296 297 298 302 302 302 302
Wind_Speed
19 8 16 17 15 11 13 11 13 5 10 6 8 6 12 19 19 22 18 18 22 21 16 5 9 9 12 8 11 10 9 8 18 28 22 20 19 17 17 17 23 24 25 25
6 14 13 15 15 17 18 11 7 8 15 8 17 15 12 14 11 20 20 21 27 16 23 6 5 8 10 11 4 8 12 12 10 17 19 20 18 16 15 16 18 19 23 25
12 10 16 19 19 19 18 13 10 13 14 11 7 14 10 8 17 20 23 28 23 16 19 7 4 8 13 7 7 4 6 12 18 20 17 20 19 16 18 21 26 26 26 27
10 16 18 19 21 17 16 14 16 19 11 7 13 5 8 12 9 10 21 25 21 16 5 11 3 3 6 6 3 6 9 10 8 11 21 15 18 24 24 24 22 19 26 26
11 15 16 16 14 18 17 13 20 25 6 14 12 4 8 11 8 12 14 27 25 23 14 7 14 13 6 2 8 7 4 7 8 8 12 19 22 15 15 16 18 18 15 24
15 21 13 19 19 19 18 8 6 6 8 5 10 10 6 9 17 14 9 19 36 18 20 18 15 12 10 5 6 5 5 3 3 7 8 13 17 16 15 19 17 9 4 6
18 18 17 18 11 8 8 7 5 5 1 4 17 6 10 20 18 20 11 13 28 27 22 20 18 12 8 7 8 7 7 6 3 1 0 1 4 8 10 13 15 16 16 15
11 10 16 14 8 12 8 10 7 6 4 5 6 13 12 13 33 30 27 27 23 24 22 20 17 12 10 9 7 4 4 6 6 6 4 2 2 4 5 6 8 9 8 9
8 11 10 10 7 12 7 5 14 4 4 2 3 8 8 5 18 21 25 29 25 24 17 18 12 10 12 9 5 1 4 5 5 5 5 3 4 5 6 6 10 12 12 11
3 4 5 11 9 11 5 7 5 2 4 2 3 8 2 9 15 16 13 21 18 18 15 19 20 16 12 7 5 7 5 7 9 9 10 11 10 12 15 17 17 17 18 20
5 6 7 10 8 8 5 1 2 4 6 4 1 5 5 7 3 14 11 27 25 24 21 23 25 19 14 12 8 5 1 2 7 10 10 12 17 19 20 20 20 20 21 23
7 5 1 5 3 3 4 9 7 5 4 4 4 5 4 6 11 12 22 26 20 14 16 12 18 15 15 12 8 6 5 5 3 7 9 12 15 19 21 23 26 27 28 28
7 5 4 7 6 4 2 4 4 4 4 6 8 4 3 11 5 11 20 19 19 13 7 7 12 8 6 7 3 3 3 4 7 11 15 16 19 24 27 29 31 31 30 30
9 5 11 4 1 1 5 3 2 6 4 0 5 5 6 6 2 10 5 20 4 7 16 14 11 7 7 7 6 5 5 8 12 15 17 20 22 25 28 30 31 31 30 32
6 4 5 2 2 6 8 10 2 5 6 4 5 8 5 10 4 16 20 18 11 10 7 10 10 6 4 2 3 5 6 9 12 16 20 22 25 29 31 31 30 31 31 30
5 5 10 6 7 5 10 6 5 5 4 7 6 3 5 21 25 14 7 15 9 4 7 11 8 7 4 1 2 6 10 12 13 17 21 26 27 29 33 31 30 29 28 29
5 5 3 3 2 5 4 7 4 5 4 8 2 6 2 8 8 12 22 28 26 20 22 20 16 12 9 8 9 11 13 16 19 22 24 26 29 28 26 28 30 33 36 38
6 5 3 3 4 3 4 6 2 5 9 6 11 10 14 21 28 32 27 26 23 19 15 12 11 9 10 12 15 17 20 22 20 19 21 24 24 25 29 32 36 40 43 46
9 6 4 4 2 5 3 4 4 15 12 12 16 14 16 22 32 23 20 19 15 13 11 10 11 14 16 20 22 19 19 18 18 20 21 23 25 29 34 39 43 46 50 55
5 11 5 4 4 6 3 5 7 6 6 12 18 13 13 22 10 4 14 13 12 10 11 16 17 17 20 11 8 11 12 14 18 19 22 25 30 35 39 43 47 51 46 45
8 4 6 3 4 3 5 6 8 5 4 16 24 24 25 9 10 12 10 11 9 10 11 11 10 10 14 14 13 12 12 15 18 22 26 30 34 39 44 48 45 42 39 33
5 4 2 2 5 3 12 9 5 6 17 24 24 21 18 15 14 13 14 16 16 17 17 16 14 13 14 16 17 17 19 22 27 30 34 38 42 44 42 39 37 31 30 29
3 5 4 4 5 11 26 22 19 21 23 21 20 17 15 15 15 16 17 18 18 18 16 15 15 15 18 22 24 26 29 33 37 40 42 42 38 35 33 30 29 27 26 27
7 8 5 9 8 14 23 26 25 23 21 18 16 16 15 14 16 16 17 16 14 15 17 19 21 23 25 28 32 33 35 37 38 37 34 34 33 30 26 24 22 24 24 27
3 6 6 11 14 24 25 26 24 20 17 16 16 14 14 13 14 14 14 13 15 17 20 23 25 27 28 30 31 30 31 32 33 32 31 30 28 25 23 21 22 23 22 21
5 1 6 3 10 20 20 22 19 20 16 15 12 12 12 11 12 10 12 15 19 20 19 20 23 26 26 27 27 29 29 28 28 28 26 25 24 23 22 23 23 19 20 21
Wind_Direction
213 196 206 217 230 241 234 210 219 189 231 221 154 188 233 265 269 260 252 245 248 278 266 11 343 37 77 90 99 154 202 199 201 223 232 241 251 259 257 251 238 240 250 242
195 221 211 220 231 239 238 238 234 212 227 207 199 221 234 228 240 240 232 241 244 265 249 247 18 358 16 37 5 208 217 223 197 217 235 250 254 268 272 269 254 244 238 243
199 213 206 205 226 227 234 214 216 229 207 182 172 208 212 237 236 245 251 236 235 253 251 221 152 346 352 25 37 306 265 253 239 233 223 228 238 246 243 250 255 253 249 246
210 211 218 206 221 225 233 217 215 243 247 178 195 238 214 209 211 230 251 235 237 227 253 175 152 241 357 354 308 299 296 262 282 235 227 227 236 246 256 263 262 267 259 253
210 204 212 224 214 220 236 246 203 229 222 186 190 132 239 184 206 225 229 230 231 238 169 153 108 105 84 328 305 320 237 210 215 220 212 228 238 241 238 251 262 275 260 251
216 222 199 217 232 221 218 210 2 271 182 189 229 185 251 182 197 209 203 219 223 197 148 135 126 124 98 63 7 17 46 94 228 227 221 232 244 244 251 257 272 270 188 251
217 226 217 208 228 242 225 85 15 336 319 185 219 199 224 194 196 199 156 129 144 129 134 133 131 138 123 95 80 66 68 69 70 91 163 341 299 282 269 274 278 277 272 260
204 227 224 196 194 216 214 148 138 242 203 244 233 240 250 218 194 185 164 151 135 138 128 140 145 146 143 132 113 78 34 52 47 57 62 3 33 47 34 12 346 352 358 22
185 230 221 212 184 196 222 176 176 107 358 21 330 334 333 158 154 151 150 158 153 155 158 154 163 176 166 166 159 77 21 12 23 20 20 23 334 316 315 317 314 312 308 302
239 211 272 203 189 227 141 194 170 152 162 282 319 287 278 120 139 146 139 151 162 160 161 176 169 157 161 161 155 138 73 21 351 335 329 322 309 310 308 302 296 291 292 298
202 118 257 263 193 180 150 5 44 139 148 132 98 270 291 8 182 134 124 135 133 149 165 163 162 158 156 149 143 125 26 341 348 334 350 345 338 329 321 315 312 308 304 297
158 117 280 255 65 71 214 173 170 125 275 109 87 258 220 48 349 148 136 137 140 137 115 127 142 134 140 128 104 54 48 27 359 334 332 330 328 322 317 313 312 312 309 304
167 136 53 289 22 10 295 174 199 144 126 150 169 217 94 102 251 335 113 105 141 150 166 125 144 158 205 195 193 203 253 296 301 309 308 307 310 314 312 311 310 312 313 311
82 55 151 205 324 28 343 267 77 104 70 357 20 94 56 22 257 207 187 140 176 234 201 197 180 134 148 162 164 210 258 285 286 288 295 300 302 303 307 308 308 306 306 305
106 101 109 63 345 356 340 323 158 130 106 110 131 123 179 123 322 242 153 173 145 100 119 182 174 179 133 168 260 277 278 276 285 294 299 301 300 302 305 308 310 309 307 302
41 104 115 168 189 79 282 295 355 5 106 77 50 36 172 177 191 143 127 119 112 81 104 126 132 135 134 48 304 288 291 293 291 289 295 298 299 299 301 307 307 299 291 286
76 128 103 105 104 71 228 281 222 157 165 126 131 189 89 117 103 69 74 79 68 73 80 72 68 55 30 3 336 311 298 295 297 298 295 296 299 301 302 292 287 287 291 292
118 89 79 100 57 104 278 328 162 162 41 138 116 86 83 87 74 68 68 71 65 57 49 41 25 7 344 319 308 305 306 307 302 297 295 298 294 287 284 285 289 292 294 297
118 100 106 108 152 99 104 359 14 104 41 33 81 71 60 95 76 55 55 53 47 32 18 2 345 325 324 312 298 293 297 294 297 296 290 286 285 286 290 292 294 297 298 299
96 132 99 135 156 183 175 54 25 88 52 25 66 59 49 60 69 21 47 47 31 10 345 330 333 337 319 334 333 324 314 294 288 286 287 289 293 296 298 299 300 301 301 300
139 143 164 132 97 29 28 38 331 75 186 59 61 67 61 72 83 42 38 19 0 341 343 4 20 21 341 327 320 305 294 289 292 293 295 296 298 300 301 302 302 302 304 303
115 108 142 78 106 149 287 31 83 135 75 81 69 59 52 45 42 29 22 28 20 12 1 351 346 351 336 325 317 316 310 303 301 301 300 301 302 304 305 305 306 306 307 309
78 141 147 135 137 101 93 103 93 90 81 74 72 56 63 48 36 29 19 12 9 5 355 339 329 313 311 314 317 314 311 307 304 302 303 306 307 309 310 309 311 314 316 317
26 110 122 91 113 111 107 96 94 89 85 79 70 54 44 37 26 20 14 7 353 347 337 324 313 310 308 306 307 308 306 304 304 307 312 314 315 316 317 316 318 321 321 319
159 95 100 105 109 86 84 96 96 91 87 75 62 49 45 38 32 22 19 354 342 328 318 314 314 314 315 314 316 316 315 312 313 314 317 320 321 324 326 328 328 327 330 327
29 167 128 131 134 114 112 103 102 87 77 71 63 60 48 42 29 10 5 342 332 332 331 333 331 325 323 323 320 317 315 316 319 320 324 327 329 333 333 332 332 334 333 331